Back to catalog

FENGYUN 1C DEB

AliveSSO
NORAD 30530·DEBRIS·🇨🇳 China

Launched May 10, 1999 from Taiyuan Satellite Launch Center

Loading…

Next Passes (next 24 hours)

TLE

FreshSource: Space-Track

Epoch: Sep 14, 2026, 08:04 UTC

1 30530U 99025AJU 26257.33621619  .00000393  00000-0  13891-3 0  9999
2 30530  98.3648 293.5250 0099465  33.6256  26.4569 14.37146411 27446

Track FENGYUN 1C DEB in real time with AllMySat

Download on the App Store